Showing default

DB-BECON-2-VU, 68468

Orbit data source: Space-Track

DB-BECON-2-VU, 68468 is a payload satellite in SSO that was launched on Mon, 30 Mar 2026 UTC via an FALCON 9 launch vehicle from the Air Force Western Test Range (AFWTR). Payload-class satellites include a variety of spacecraft equipped with specific instruments for various scientific and technological missions. These include communications satellites like Starlink; space stations such as the ISS; scientific satellites like the Hubble; Earth observation satellites from companies like Planet Labs, Umbra, and HawkEye 360; GPS; miniature CubeSats for education and research; and military/defense satellites.

Loading next visibility...
Identifier
68468, 2026-067BE
Orbit
SSO
Country
Flag of TBDTBD
Related business
None
Manufacturer
Unknown
Mission
Operational Commercial Technology
Bus & Motor
Unknown
Mass
Unknown
Launch date (UTC)
2026-03-30 (5 months ago)
Launch vehicle
FALCON 9
Launch site
Air Force Western Test Range (AFWTR)
Object type
Payload
Rocket body
Debris
Shape & HBR
Box + 2 Pan, 1.1 m
Radar Cross Section
0.017 m², Medium (>0.1 m² and < 1m²)

Expand to show TLE details & history
Last TLE update: 16 hours ago

TLE from 16 hours ago
0 DB-BECON-2-VU
1 68468U 26067BE  26236.14287731  .00007338  00000-0  35699-3 0  9991
2 68468  97.4594 193.5420 0006827 161.7299 198.4182 15.18670034 22242
Epoch: 2026-08-24T03:25Z
TLE epoch observation values (Epoch: 2026-08-24T03:25:44.599Z)
Latitude
-0.00001°
Longitude
169.67735°
Altitude
517.409 km
Speed
7.602 km/s
True Right ascension
12h 54m 10s
True Declination
0° 00' 00"
Sunlit
Object was in daylight at epoch
Visualization orbit readout
Latitude
Unknown
Longitude
Unknown
Altitude
Unknown
Speed
Unknown
Apparent Right ascension
Unknown
Apparent Declination
Unknown
Sunlit
N/A
Visualization observer readout
Local Sidereal Time
10:29:28
Azimuth
Unknown
Elevation
Unknown
Doppler factor
Unknown
Orbital elements
Apogee altitude
511.529 km
Perigee altitude
502.129 km
Semi-major axis
6,884.966 km
Eccentricity
0.00068
Inclination
97.4594°
RAAN
193.542°
Arg. of periapsis
161.7299°
True anomaly
198.3935°
Mean anomaly
198.4182°
Eccentric anomaly
198.40585°
Mean motion
3.79919 °/min
Orbital period
94.76 mins
BSTAR
0.00035699
Loading maneuver chart data...
Computing Atmospheric mass density...
Loading historical data...
Loading historical data...
Loading historical data...
Loading historical data...
Loading historical data...
Loading historical data...
Loading historical data...

Documentation

Showing up to 5 results
|